O3B FM12 (40350 NORAD) Tracking and Keplerian Element Data

This shows tracking and keplerian element data for the satellite.

Feedback or suggestion? Click here.




ElementValue
Catalog40350
NameO3B FM12
Epoch Orbit7305
Epoch Day351.73876118
Epoch Year2018
RAAN16.698
Inclination0.0427
Eccentricity0.0002862
Argument of Perigee248.4858
Mean Anonmoly94.787
Mean Motion5.00115607
Decay Rate-1.2E-07
L11 40350U 14083C 18351.73876118 -.00000012 00000-0 00000-0 0 9991
L22 40350 0.0427 16.6980 0002862 248.4858 94.7870 5.00115607 73059

Live tracking and technical data element details for O3B FM12 (NORAD 40350). O3B FM12 can be tracked NOW for your location showing map with azimuth and elevation plus other details from your city location.

Track the satellite on the map from your city or location and see movement details for azimuth, elevation, latitude, longitude, range, height, and movement on the map or in text.







IsCatalogInMostPopularTable: catalog: 40350, numindb: 102
Update: records affected: 1



GetName: 40350 O3B FM12

Hit Count: updated at: Wed, 19 Dec 2018 15:22:02 GMT